Location: Greenwich
(51.4790°N, 0.0090°E)
Time: 20:23:44
(UTC+01:00)

Tiros 1 - Pass Details

Date: 28 April 2024
Orbit: 624 x 657 km, 48.4° (Epoch: 22 May)

Event Time Altitude Azimuth Distance (km) Brightness Sun altitude
Exits shadow 04:22:28 15° 232° (SW) 1,700 8.6 -10.6°
Maximum altitude 04:23:20 16° 219° (SW) 1,660 8.6 -10.5°
Drops below altitude 10° 04:26:02 10° 183° (S) 1,991 9.3 -10.2°
Sets 04:29:08 0° 161° (SSE) 2,891 10.3 -9.8°
